Starlink 11541

operational
NORAD ID: 63015 Int'l Des: 2025-032 Owner: SPXS Country: US Constellation: starlink
LEOCIRCULAR

About Starlink 11541

Description loading...

Live Position

Loading 3D Globe...

Upcoming Passes

Altitude History

Altitude vs Time

uPlot chart will show altitude changes over time

Two-Line Element Set

1 63015U 25032L 25306.12045962 .00148474 00000-0 11355-2 0 9997
2 63015 42.9987 243.9987 0001299 246.7755 113.2976 15.70935092 42168
Epoch: Nov 2, 2025 • Age: 21 hours

Current Status

Altitude 355.0 km
Velocity 7.70 km/s
Sub-Earth Point 7.67°N, 160.14°W
Launch Date Feb 15, 2025
Age 0.7 years
Type internet

Technical Details

Classification Payload
Mass 960.00 kg
Dry Mass 910.00 kg
Total Mass 960.00 kg
Length 0.30 m
Diameter 4.10 m
Span 29.00 m
Shape Box + pan
Manufacturer SPXS
Bus Type Starlink V2MD
Phase Status In Orbit
Owner/State SPXS/US

Large Constellations

Loading constellations...